TimeAST,TemperatureF,Dew PointF,Humidity,Sea Level PressureIn,VisibilityMPH,Wind Direction,Wind SpeedMPH,Gust SpeedMPH,PrecipitationIn,Events,Conditions,WindDirDegrees,DateUTC
12:00 AM,21.4,13.5,72,30.07,-9999.0,East,8.1,-,N/A,,Unknown,80,2013-02-06 04:00:00
1:00 AM,21.2,11.5,66,30.06,-9999.0,ENE,11.5,-,N/A,,Unknown,70,2013-02-06 05:00:00
2:00 AM,21,11,53,30.06,,ENE,12.7,,,,,70,2013-02-06 06:00:00
2:00 AM,21.0,10.9,65,30.06,-9999.0,ENE,12.7,-,N/A,,Unknown,70,2013-02-06 06:00:00
3:00 AM,19.9,11.5,70,30.05,-9999.0,ENE,13.8,-,N/A,,Unknown,60,2013-02-06 07:00:00
4:00 AM,19.6,11.3,70,30.04,-9999.0,ENE,15.0,-,N/A,,Unknown,60,2013-02-06 08:00:00
5:00 AM,18.9,10.0,69,30.04,-9999.0,ENE,12.7,-,N/A,,Unknown,60,2013-02-06 09:00:00
6:00 AM,19.0,10.8,70,30.04,-9999.0,ENE,17.3,-,N/A,,Unknown,70,2013-02-06 10:00:00
7:00 AM,19.0,9.9,67,30.04,-9999.0,East,19.6,-,N/A,,Unknown,80,2013-02-06 11:00:00
8:00 AM,19,12,63,30.05,,ENE,15.0,,,,,70,2013-02-06 12:00:00
8:00 AM,19.4,11.8,72,30.05,-9999.0,ENE,15.0,-,N/A,,Unknown,70,2013-02-06 12:00:00
9:00 AM,20.7,13.5,74,30.04,-9999.0,East,17.3,-,N/A,,Unknown,80,2013-02-06 13:00:00
10:00 AM,23.0,15.1,72,30.04,-9999.0,East,18.4,-,N/A,,Unknown,90,2013-02-06 14:00:00
11:00 AM,23.7,15.3,70,30.03,-9999.0,East,16.1,-,N/A,,Unknown,100,2013-02-06 15:00:00
12:00 PM,26.1,17.1,69,30.01,-9999.0,East,15.0,-,N/A,,Unknown,100,2013-02-06 16:00:00
1:00 PM,29.1,18.7,65,29.99,-9999.0,ESE,12.7,-,N/A,,Unknown,120,2013-02-06 17:00:00
2:00 PM,31,20,53,29.97,,SE,11.5,,,,,130,2013-02-06 18:00:00
2:00 PM,30.9,20.5,65,29.97,-9999.0,SE,11.5,-,N/A,,Unknown,130,2013-02-06 18:00:00
3:00 PM,30.6,23.7,76,29.96,-9999.0,SSE,11.5,-,N/A,,Unknown,150,2013-02-06 19:00:00
4:00 PM,32.0,25.3,76,29.95,-9999.0,SSE,18.4,-,N/A,,Unknown,150,2013-02-06 20:00:00
5:00 PM,30.2,28.2,92,29.94,-9999.0,SE,21.9,-,N/A,,Unknown,140,2013-02-06 21:00:00
6:00 PM,31.6,31.8,100,29.97,-9999.0,WSW,16.1,26.5,0.05,,Unknown,250,2013-02-06 22:00:00
7:00 PM,33.4,27.5,79,29.99,-9999.0,West,18.4,28.8,N/A,,Unknown,280,2013-02-06 23:00:00
8:00 PM,34,26,64,30.02,,WNW,23.0,,,,,290,2013-02-07 00:00:00
8:00 PM,34.3,26.2,72,30.02,-9999.0,WNW,23.0,-,N/A,,Unknown,290,2013-02-07 00:00:00
9:00 PM,33.6,25.7,73,30.04,-9999.0,WNW,24.2,29.9,N/A,,Unknown,290,2013-02-07 01:00:00
10:00 PM,31.3,21.9,68,30.07,-9999.0,WNW,29.9,36.8,N/A,,Unknown,290,2013-02-07 02:00:00
11:00 PM,28.9,18.9,66,30.10,-9999.0,WNW,31.1,38.0,N/A,,Unknown,290,2013-02-07 03:00:00